Flag for Brazil Weather past 2 weeks in São Paulo, São Paulo, Brazil

Now
64 °F

Passing clouds.


Feels Like: 64 °F
Forecast: 67 / 76 °F
Wind: 5 mph from Southeast

Location: Sao Paulo Airport


UV Index: 5 (Moderate)

Visibility: N/A


Pressure: 30.12 "Hg

Humidity: 88%

Dew point: 61 °F

Location of São PauloLocation

Historic Weather in São Paulo

°F

São Paulo temperature yesterday

Maximum temperature yesterday: 75 °F (at 1:00 PM)
Minimum temperature yesterday: 64 °F (at 6:00 AM)
Average temperature yesterday: 69 °F

Past Weeks' High & Low Weather Summary

 TemperatureHumidityPressure
High86 °F (Apr 6, 2:00 PM)100% (Apr 12, 9:00 PM)30.21 "Hg (Apr 12, 9:00 PM)
Low32 °F (Apr 12, 9:00 PM)22% (Apr 7, 2:00 PM)29.92 "Hg (Apr 9, 3:00 PM)
Average71 °F73%30.08 "Hg
* Reported Apr 6 5:00 AM — Apr 21 5:00 AM, São Paulo, Weather by CustomWeather, © 2014

Note: Actual official high and low records may vary slightly from our data, if they occured in-between our weather recording intervals... More about our weather records

Advertising

Historic Weather Conditions — Data for Previous 24 hours

 ConditionsComfort  
Time TempWeatherWind HumidityBarometerVisibility
5:00 AM
Apr 21
66 °FPartly cloudy.5 mph83%30.09 "HgN/A
4:00 AM66 °FPassing clouds.3 mph83%30.12 "HgN/A
3:00 AM64 °FPartly cloudy.6 mph88%30.12 "HgN/A
2:00 AM66 °FPassing clouds.7 mph78%30.12 "HgN/A
1:00 AM66 °FPassing clouds.9 mph83%30.12 "HgN/A
12:00 AM66 °FPartly cloudy.10 mph83%30.12 "HgN/A
11:00 PM
Apr 20
68 °FMostly cloudy.9 mph78%30.15 "Hg5 mi
10:00 PM68 °FOvercast.12 mph78%30.15 "HgN/A
9:00 PM68 °FOvercast.14 mph83%30.12 "HgN/A
8:00 PM68 °FPassing clouds.10 mph83%30.12 "HgN/A
7:00 PM70 °FPartly cloudy.12 mph78%30.12 "HgN/A
6:00 PM70 °FPartly cloudy.12 mph78%30.09 "HgN/A
5:00 PM73 °FPassing clouds.12 mph65%30.09 "HgN/A
4:00 PM73 °FPartly sunny.12 mph69%30.09 "HgN/A
3:00 PM75 °FBroken clouds.8 mph61%30.09 "HgN/A
2:00 PM75 °FBroken clouds.10 mph65%30.09 "HgN/A
1:00 PM75 °FBroken clouds.8 mph65%30.12 "HgN/A
12:00 PM73 °FSunny.6 mph65%30.12 "Hg10 mi
11:00 AM72 °FScattered clouds.7 mph69%30.12 "HgN/A
10:00 AM70 °FPartly sunny.7 mph73%30.15 "HgN/A
9:00 AM68 °FPassing clouds.3 mph78%30.12 "HgN/A
8:00 AM66 °FFog.6 mph88%30.12 "Hg3 mi
7:00 AM66 °FScattered clouds.2 mph83%30.12 "HgN/A
6:00 AM64 °FSunny.3 mph83%30.09 "Hg10 mi
Weather by CustomWeather, © 2014

See weather overview